Time,TemperatureF,DewpointF,PressureIn,WindDirection,WindDirectionDegrees,WindSpeedMPH,WindSpeedGustMPH,Humidity,HourlyPrecipIn,Conditions,Clouds,dailyrainin,SoftwareType,DateUTC
2013-02-28 00:00:00,-7.0,-99.9,-100.00,North,2,0.0,0.0,-999,-99.99,,,-99.99,,2013-02-28 07:00:00,
2013-02-28 00:52:00,-7.0,-99.9,-100.00,North,2,0.0,0.0,-999,-99.99,,,-99.99,,2013-02-28 07:52:00,
2013-02-28 01:00:00,-9.0,-99.9,-100.00,North,-999,-999.0,-999.0,-999,-99.99,,,-99.99,,2013-02-28 08:00:00,
2013-02-28 01:53:00,-9.0,-99.9,-100.00,North,-999,-999.0,-999.0,-999,-99.99,,,-99.99,,2013-02-28 08:53:00,
2013-02-28 02:00:00,-5.0,-99.9,-100.00,North,2,0.0,0.0,-999,-99.99,,,-99.99,,2013-02-28 09:00:00,
2013-02-28 02:53:00,-5.0,-99.9,-100.00,North,2,0.0,0.0,-999,-99.99,,,-99.99,,2013-02-28 09:53:00,
2013-02-28 03:00:00,1.0,-99.9,-100.00,North,2,0.0,0.0,-999,-99.99,,,-99.99,,2013-02-28 10:00:00,
2013-02-28 03:52:00,1.0,-99.9,-100.00,North,2,0.0,0.0,-999,-99.99,,,-99.99,,2013-02-28 10:52:00,
2013-02-28 04:00:00,2.0,-99.9,-100.00,North,1,0.0,0.0,-999,-99.99,,,0.00,,2013-02-28 11:00:00,
2013-02-28 04:53:00,2.0,-99.9,-100.00,North,1,0.0,0.0,-999,-99.99,,,0.00,,2013-02-28 11:53:00,
2013-02-28 05:00:00,-1.0,-99.9,-100.00,North,1,0.0,1.0,-999,-99.99,,,-99.99,,2013-02-28 12:00:00,
2013-02-28 05:53:00,-1.0,-99.9,-100.00,North,1,0.0,1.0,-999,-99.99,,,-99.99,,2013-02-28 12:53:00,
2013-02-28 06:00:00,-6.0,-99.9,-100.00,North,1,0.0,0.0,-999,-99.99,,,-99.99,,2013-02-28 13:00:00,
2013-02-28 06:52:00,-6.0,-99.9,-100.00,North,1,0.0,0.0,-999,-99.99,,,-99.99,,2013-02-28 13:52:00,
2013-02-28 07:00:00,-8.0,-99.9,-100.00,North,1,0.0,0.0,-999,-99.99,,,-99.99,,2013-02-28 14:00:00,
2013-02-28 07:52:00,-8.0,-99.9,-100.00,North,1,0.0,0.0,-999,-99.99,,,-99.99,,2013-02-28 14:52:00,
2013-02-28 08:00:00,2.0,-99.9,-100.00,North,3,0.0,0.0,-999,-99.99,,,-99.99,,2013-02-28 15:00:00,
2013-02-28 08:53:00,2.0,-99.9,-100.00,North,3,0.0,0.0,-999,-99.99,,,-99.99,,2013-02-28 15:53:00,
2013-02-28 09:00:00,15.0,-99.9,-100.00,North,2,0.0,0.0,-999,-99.99,,,-99.99,,2013-02-28 16:00:00,
2013-02-28 09:53:00,15.0,-99.9,-100.00,North,2,0.0,0.0,-999,-99.99,,,-99.99,,2013-02-28 16:53:00,
2013-02-28 10:00:00,23.0,-99.9,-100.00,North,0,0.0,5.0,-999,-99.99,,,0.00,,2013-02-28 17:00:00,
2013-02-28 10:53:00,23.0,-99.9,-100.00,North,0,0.0,5.0,-999,-99.99,,,0.00,,2013-02-28 17:53:00,
2013-02-28 12:00:00,29.0,-99.9,-100.00,North,0,6.0,16.0,-999,-99.99,,,0.00,,2013-02-28 19:00:00,
2013-02-28 12:53:00,29.0,-99.9,-100.00,North,0,6.0,16.0,-999,-99.99,,,0.00,,2013-02-28 19:53:00,
2013-02-28 13:00:00,27.0,-99.9,-100.00,North,0,6.0,14.0,-999,-99.99,,,0.00,,2013-02-28 20:00:00,
2013-02-28 13:52:00,27.0,-99.9,-100.00,North,0,6.0,14.0,-999,-99.99,,,0.00,,2013-02-28 20:52:00,
2013-02-28 14:00:00,26.0,-99.9,-100.00,North,0,5.0,12.0,-999,-99.99,,,0.00,,2013-02-28 21:00:00,
2013-02-28 14:52:00,26.0,-99.9,-100.00,North,0,5.0,12.0,-999,-99.99,,,0.00,,2013-02-28 21:52:00,
2013-02-28 15:00:00,26.0,-99.9,-100.00,North,0,2.0,14.0,-999,-99.99,,,0.00,,2013-02-28 22:00:00,
2013-02-28 15:52:00,26.0,-99.9,-100.00,North,0,2.0,14.0,-999,-99.99,,,0.00,,2013-02-28 22:52:00,
2013-02-28 16:00:00,22.0,-99.9,-100.00,North,0,0.0,1.0,-999,-99.99,,,0.00,,2013-02-28 23:00:00,
2013-02-28 16:53:00,22.0,-99.9,-100.00,North,0,0.0,1.0,-999,-99.99,,,0.00,,2013-02-28 23:53:00,
2013-02-28 18:00:00,20.0,-99.9,-100.00,North,0,0.0,0.0,-999,-99.99,,,0.00,,2013-03-01 01:00:00,
2013-02-28 18:52:00,20.0,-99.9,-100.00,North,0,0.0,0.0,-999,-99.99,,,0.00,,2013-03-01 01:52:00,
2013-02-28 19:00:00,20.0,-99.9,-100.00,North,360,0.0,0.0,-999,-99.99,,,0.00,,2013-03-01 02:00:00,
2013-02-28 19:52:00,20.0,-99.9,-100.00,North,360,0.0,0.0,-999,-99.99,,,0.00,,2013-03-01 02:52:00,
2013-02-28 20:00:00,20.0,-99.9,-100.00,North,0,0.0,0.0,-999,-99.99,,,0.00,,2013-03-01 03:00:00,
2013-02-28 20:52:00,20.0,-99.9,-100.00,North,0,0.0,0.0,-999,-99.99,,,0.00,,2013-03-01 03:52:00,
2013-02-28 21:00:00,20.0,-99.9,-100.00,North,-999,-999.0,-999.0,-999,-99.99,,,0.01,,2013-03-01 04:00:00,
2013-02-28 21:53:00,20.0,-99.9,-100.00,North,-999,-999.0,-999.0,-999,-99.99,,,0.01,,2013-03-01 04:53:00,
2013-02-28 22:00:00,20.0,-99.9,-100.00,North,0,0.0,0.0,-999,-99.99,,,-99.99,,2013-03-01 05:00:00,
2013-02-28 22:53:00,20.0,-99.9,-100.00,North,0,0.0,0.0,-999,-99.99,,,-99.99,,2013-03-01 05:53:00,